Regional Weather Roundup
Issued by NWS

Home | Current Version | Previous Version | Text Only | Print | Product List | Glossary Off
Versions: 1 2 3 4 5 6 7 8 9 10 11 12 13 14 15 16 17 18 19 20 21 22 23 24 25 26 27 28 29 30 31 32 33 34 35 36 37 38 39 40 41 42 43 44 45 46 47 48 49 50

000
ASUS43 KIND 251109
RWRIN

WEATHER ROUNDUP FOR INDIANA
NATIONAL WEATHER SERVICE INDIANAPOLIS IN
700 AM EDT MON MAY 25 2015

NOTE: "FAIR" INDICATES FEW OR NO CLOUDS BELOW 12,000 FEET WITH NO
SIGNIFICANT WEATHER AND/OR OBSTRUCTIONS TO VISIBILITY.

* - STATION DOES NOT REPORT WEATHER SUCH AS PRECIPITATION OR FOG.

+ - STATION NOT QUALITY CONTROLLED BY THE NATIONAL WEATHER SERVICE.
    USE DATA WITH CAUTION...ESPECIALLY DEWPOINT AND RELATIVE
    HUMIDITY OBSERVATIONS.

INZ001>003-010>013-019-020-251200-
NORTHWEST INDIANA

CITY           SKY/WX    TMP DP  RH WIND       PRES   REMARKS
GARY /AIRPORT/ CLOUDY    73  64  73 S12G23    29.89R
KNOX *+        CLOUDY    72  61  68 S18G24    29.93R
LA PORTE +     CLOUDY    73  63  70 S16G24    29.93R
MICHIGAN CITY+ CLOUDY    72  61  68 S14G24    29.91R
MONTICELLO +   CLOUDY    72  64  77 S10G21    29.94S
RENSSELAER +   CLOUDY    72  64  78 S18G25    29.93R
VALPARAISO     LGT RAIN  72  63  73 S13       29.92R

$$

LMZ046-743>745-251200-
SOUTHERN LAKE MICHIGAN

STATION/POSITION TIME  TEMP    WIND        PRES    WAVE
                       AIR SEA DIR/SP/G            HT
                 (UTC) (F)     (DEG/KT/KT) (MB)    (FT)
BURNS HARBOR     1100   71     180/ 15/ 19 1012.5S
MICHIGAN CITY    1100   72     150/ 15/ 20   N/A
5NW MICH CITY    1100   66 53  190/ 12/ 16   N/A     1

$$

INZ004-005-014>016-021>024-251200-
NORTH CENTRAL INDIANA

CITY           SKY/WX    TMP DP  RH WIND       PRES   REMARKS
ELKHART        CLOUDY    72  59  64 S12G18    29.95
GOSHEN         CLOUDY    71  60  68 S16       29.96R
LOGANSPORT +   CLOUDY    72  59  64 S20       29.97S
PERU/GRISSOM   DRIZZLE   72  63  73 S23       29.97R
ROCHESTER +    DRIZZLE   73  63  68 S12       29.97S
SOUTH BEND     CLOUDY    73  61  65 S18G24    29.93R
WARSAW +       CLOUDY    70  59  68 S7        29.97R

$$

INZ006>009-017-018-025>027-251200-
NORTHEAST INDIANA

CITY           SKY/WX    TMP DP  RH WIND       PRES   REMARKS
ANGOLA *+      CLEAR     70  59  68 S8        29.98S
AUBURN +       CLOUDY    72  57  60 S9G17     30.01R
FORT WAYNE     CLOUDY    71  60  68 S16G23    30.01R
HUNTINGTON +   CLOUDY    71  60  67 S12G17    30.00R

$$

INZ028-029-035-036-043>045-051>053-251200-
WEST CENTRAL INDIANA

CITY           SKY/WX    TMP DP  RH WIND       PRES   REMARKS
CRAWFORDSVL +  CLOUDY    67  60  75 S20G28    29.99R
GREENCASTLE +  CLOUDY    68  61  77 S13G20    30.02R
LAFAYETTE      LGT RAIN  71  64  78 S14G23    29.95R
TERRE HAUTE    CLOUDY    69  66  90 S15G25    30.00R

$$

INZ030>032-037>040-046>048-054>057-064-065-251200-
CENTRAL INDIANA

CITY           SKY/WX    TMP DP  RH WIND       PRES   REMARKS
CP ATTERBURY + CLOUDY    66  63  88 S8        30.06R
FISHERS *+     CLOUDY    66  66 100 S12G20    30.03S
FRANKFORT +    LGT RAIN  70  65  82 S10G25    30.01R
GREENWOOD *+   CLOUDY    68  63  83 S13G20    30.05S
INDIANAPOLIS   CLOUDY    68  64  87 S15       30.01S
-EAGLE CREEK   CLOUDY    69  65  86 S10       30.02R
KOKOMO *+      CLOUDY    72  61  68 S23G29    29.99S
MARION +       LGT RAIN  69  60  72 S24       30.02R
MT COMFORT *+  CLOUDY    68 N/A N/A S12G20    30.04F
SHELBYVILLE    CLOUDY    69  65  86 S14       30.05S
ZIONSVILLE +   DRIZZLE   70  63  78 S21       30.02S

$$

INZ033-034-041-042-049-050-058-059-251200-
EAST CENTRAL INDIANA

CITY           SKY/WX    TMP DP  RH WIND       PRES   REMARKS
MUNCIE         LGT RAIN  71  62  73 SW16G26   30.04R

$$

INZ060-061-067>069-081>083-085>088-251200-
SOUTHWEST INDIANA

CITY           SKY/WX    TMP DP  RH WIND       PRES   REMARKS
EVANSVILLE     LGT RAIN  68  65  90 S10       30.06R
HUNTINGBURG *+ CLOUDY    66  63  88 S13       30.09R
WASHINGTON +   LGT RAIN  68  64  87 S14       30.04R

$$

INZ062-063-066-070>080-084-089>092-251200-
SOUTH CENTRAL AND SOUTHEAST INDIANA

CITY           SKY/WX    TMP DP  RH WIND       PRES   REMARKS
BLOOMINGTON    LGT RAIN  68  66  93 S12       30.05R
MADISON *+     MOCLDY    70  55  60 S7        30.12R
NORTH VERNON + MOCLDY    70  63  78 S9        30.09R
SEYMOUR +      MOCLDY    72  61  68 S14       30.06S

$$



USA.gov is the U.S. government's official web portal to all federal, state and local government web resources and services.